CAPE
1110 1006 1178 1006 993 1090 1116 1182 1256 1144 1186 1106 969 895 970 1097 890 735 714 398 269 301 167 4 0 0 0 0 239 254 392 446 461 471 648 776 854 992 1044 902 703 638 487 490 495 485 393 263 213 210 159 84 41 33 24 24 23 81 302 274 127 29 2 0 0 0 0 0 1 1 1 1 1 0 0 0 0 0 0 0 0 0 0 0 0
991 950 984 1072 895 967 952 898 918 1027 1059 1150 1056 942 770 817 719 581 563 534 154 330 320 255 5 0 0 2 0 176 427 487 489 506 522 666 686 844 975 736 677 581 565 418 539 598 512 407 272 211 214 97 78 50 32 27 16 31 275 415 234 65 7 0 0 0 0 0 0 0 2 2 1 1 0 0 0 0 0 0 0 0 0 0 0
1020 1122 1059 1055 960 872 921 833 739 735 852 901 922 836 692 596 599 603 544 509 432 330 311 295 205 23 24 47 3 78 476 507 541 506 509 552 613 742 872 895 866 865 722 624 637 628 591 538 494 286 245 160 75 120 49 21 16 20 29 513 282 125 29 2 0 0 0 0 0 0 0 0 0 0 0 0 1 1 0 0 0 0 0 0 0
857 1052 1144 821 695 680 757 921 1044 896 714 776 852 1191 978 621 559 578 525 510 423 329 332 312 62 228 232 78 7 5 455 540 505 506 523 531 546 629 738 830 1121 1118 912 693 700 832 688 672 647 500 303 221 103 164 121 40 18 18 60 680 321 204 124 28 0 0 0 0 0 0 0 0 1 0 1 1 0 0 0 0 0 1 0 0 0
875 968 964 797 767 828 826 938 1194 920 1026 1181 1190 1033 1025 493 505 600 541 475 408 382 381 94 260 243 358 262 42 48 1 455 515 477 464 511 586 562 616 756 948 1248 1054 929 819 782 929 795 743 656 472 190 120 135 116 148 85 13 75 717 454 302 263 130 34 1 0 0 0 0 0 1 0 0 0 0 0 0 0 0 0 0 0 0 0
954 870 934 770 950 1040 1141 1464 1446 1343 1357 1333 1183 1075 1063 521 505 522 590 452 384 415 378 427 460 351 441 410 146 81 42 20 362 486 535 468 565 553 490 633 814 1078 1054 1448 1170 890 866 995 828 755 644 368 208 205 138 127 187 25 39 400 516 390 365 290 140 45 10 0 0 0 0 2 0 0 1 0 0 0 0 0 1 0 0 0 0
883 753 911 859 941 1110 1452 1492 1563 1635 1677 1355 1176 1148 1000 769 735 387 445 445 460 427 386 483 483 357 424 418 390 303 176 323 326 333 581 552 544 506 529 530 628 902 966 1088 1326 1167 982 1028 1221 1036 840 606 488 412 283 172 220 152 16 151 441 400 382 249 273 147 46 3 0 1 2 3 3 2 0 0 0 0 1 0 0 0 0 0 0
977 863 882 1000 951 1007 1230 1370 1506 1860 1791 1602 1285 1163 999 1015 928 414 390 419 474 458 414 472 376 365 389 421 479 446 429 340 362 375 350 544 558 511 494 528 487 656 923 926 1093 1156 1063 981 1180 1157 1049 849 709 578 552 428 275 279 207 121 286 300 303 147 240 293 108 60 7 0 2 4 4 5 3 0 0 0 2 1 0 0 0 0 0
1034 1046 1097 1050 1004 1161 1378 1350 1702 1716 1379 1362 1310 1165 1104 951 783 450 410 642 604 552 456 355 381 421 450 388 420 453 395 429 366 322 292 333 490 601 663 646 540 638 601 712 870 1036 1068 1033 1097 1120 1027 1060 1043 776 743 576 524 325 315 272 257 309 236 190 150 223 262 228 99 29 1 2 2 3 3 1 0 1 2 2 1 0 0 0 0
975 908 983 1051 1295 1394 1389 1484 1418 1344 1368 1263 1221 1299 1159 926 688 563 554 728 707 639 652 751 697 714 556 373 423 453 438 373 371 341 279 307 290 339 363 378 519 548 572 496 583 822 944 1008 1081 1139 1104 1037 965 1112 860 876 728 495 376 437 366 294 291 216 173 152 306 304 296 115 13 0 0 1 2 3 1 1 0 2 1 0 0 0 0
1095 1129 1081 1264 1430 1257 1408 1529 1549 1532 1395 1273 1229 1310 1202 1012 720 644 720 813 839 830 878 883 870 908 941 686 591 568 362 446 216 337 347 328 273 244 281 281 302 265 546 489 405 509 712 866 944 1012 1042 1054 1039 1200 1162 1150 955 791 617 582 672 389 276 259 270 182 176 276 371 217 56 6 0 0 0 1 2 1 1 1 2 0 0 0 0
921 1056 1337 1287 1269 1072 1243 1525 1520 1514 1418 1331 1275 1334 1174 1045 770 761 831 857 863 881 947 939 909 736 581 616 712 706 33 28 30 33 13 345 329 233 193 261 257 236 203 449 524 472 461 485 765 926 981 979 1007 1031 1217 1170 1106 1258 951 873 1003 742 464 334 374 308 206 246 278 305 162 14 0 0 0 0 1 2 2 1 1 1 1 0 0
708 713 950 1400 1133 1176 1276 1422 1510 1464 1306 1286 1201 1301 1238 1024 805 695 758 797 784 791 764 749 669 575 553 355 541 706 683 119 14 22 28 21 0 145 218 267 258 256 238 269 462 497 507 556 528 646 887 910 908 952 1015 1044 988 1070 1358 1112 992 940 828 616 487 461 413 271 276 247 275 70 20 0 0 0 0 2 2 1 1 1 0 0 0
818 616 918 1332 1332 1451 1441 1478 1429 1414 1375 1174 1106 1203 1225 1022 824 736 651 621 577 670 701 718 608 541 505 167 0 640 819 632 218 7 360 12 4 0 0 57 219 208 209 202 296 311 517 656 553 566 578 758 840 856 909 985 984 945 1247 1474 1344 1143 1018 973 783 719 646 456 328 300 388 203 79 7 0 0 0 0 1 2 0 1 1 0 0
860 715 1223 1345 1395 1410 1337 1339 1326 1323 1304 1216 1113 1069 1059 1058 864 760 726 645 518 637 584 565 214 524 440 222 1 4 11 348 426 507 666 24 11 3 30 43 0 0 0 260 355 272 260 630 836 756 669 572 610 661 732 845 936 938 906 1078 1403 1526 1356 1154 1062 1082 953 748 488 378 533 348 147 55 11 2 0 0 1 2 0 0 0 1 1
415 801 989 1279 1277 1262 1170 1189 1281 1279 1258 1255 1189 1173 998 935 896 858 814 671 553 573 530 523 502 17 249 10 175 0 0 149 49 35 578 448 36 0 153 255 8 32 101 112 166 286 191 497 226 602 643 574 491 471 540 593 709 837 872 859 846 1151 1562 1457 1295 1106 1276 870 790 540 474 514 348 174 90 46 14 1 0 1 1 0 0 0 0
319 655 819 1182 1314 1287 1199 1161 1138 1099 1008 1042 1088 1121 1070 853 823 812 740 700 618 608 513 639 522 463 0 0 0 0 0 2 0 54 193 13 303 45 575 94 118 169 216 134 164 365 149 481 392 361 238 271 364 422 505 556 572 675 833 781 808 814 958 951 1400 1424 1051 1179 902 910 622 575 585 366 204 126 76 22 5 0 0 1 1 0 1
0 0 525 651 967 1084 1015 731 815 872 866 888 943 1018 974 819 764 721 704 642 610 559 542 639 517 213 444 600 21 0 1 165 0 1 0 453 230 20 25 170 21 0 71 221 148 19 476 510 426 384 285 149 146 256 329 452 506 515 588 679 708 756 812 962 1444 1715 1724 1187 1187 1121 1047 720 765 490 356 196 126 68 34 10 0 0 1 2 2
0 0 0 382 432 196 0 0 477 689 896 901 798 745 793 854 794 706 661 623 505 572 584 586 584 483 480 398 421 362 329 11 343 0 0 314 3 39 5 14 40 18 0 0 0 4 10 1 0 34 226 304 338 223 277 388 497 588 638 669 720 752 679 692 736 1359 1659 1696 1044 972 1048 1064 893 595 445 319 172 135 75 36 11 1 1 2 2
0 0 0 37 14 0 0 0 0 458 753 728 608 647 760 713 543 511 662 627 593 492 484 452 500 440 466 390 336 354 377 261 260 4 0 2 0 0 422 436 375 167 0 0 0 0 0 0 0 0 2 40 255 281 237 246 312 465 548 562 565 550 515 467 473 531 774 1506 1696 1310 1246 1005 874 866 639 433 301 312 296 210 89 32 2 19 2
0 0 0 0 0 0 0 0 0 0 0 0 0 110 0 0 0 0 126 295 310 295 338 372 365 377 373 321 306 304 281 53 69 2 22 82 0 0 0 0 218 301 264 178 80 11 6 0 0 0 0 0 23 182 246 217 219 255 313 454 467 446 359 338 374 399 382 356 869 1485 1301 1232 968 668 591 530 503 558 442 412 393 196 241 169 2
0 0 0 0 0 0 0 0 0 0 0 0 0 0 0 0 0 0 0 0 0 0 0 0 0 0 0 0 266 214 231 62 181 99 112 0 6 0 0 0 0 0 0 0 22 16 40 0 0 0 0 0 0 24 133 196 180 192 135 160 231 304 326 294 309 483 514 526 438 600 1200 1442 1174 837 611 641 656 616 632 632 590 563 484 334 202
0 0 0 0 0 0 0 0 0 0 0 0 0 0 0 0 0 0 0 0 0 0 0 0 0 0 0 0 0 35 1 0 0 0 0 0 0 0 0 0 0 0 0 0 0 0 0 0 0 0 0 0 0 6 68 99 137 200 240 170 89 314 202 177 150 293 357 340 319 362 411 765 1124 898 838 862 784 831 698 681 605 556 558 542 432
0 0 0 0 0 0 0 0 0 0 0 0 0 0 0 0 0 0 0 0 0 0 0 0 0 0 0 0 0 0 0 0 0 0 0 0 0 0 0 0 0 0 0 0 0 0 0 0 0 0 0 0 0 0 0 51 122 152 162 210 149 284 355 245 412 657 644 648 612 521 402 359 424 702 975 853 660 839 761 645 628 629 685 698 655
0 0 0 0 0 0 0 0 0 0 0 0 0 0 0 0 0 0 0 0 0 0 0 0 0 0 0 0 0 0 0 0 0 0 0 0 0 0 0 0 0 0 0 0 0 0 0 0 0 0 0 0 0 0 0 0 48 174 323 138 213 303 253 329 482 522 474 456 482 528 540 342 476 696 788 898 908 672 750 865 819 829 750 644 605
0 0 0 0 0 0 0 0 0 0 0 0 0 0 0 0 0 0 0 0 0 0 0 0 0 0 0 0 0 0 0 0 0 0 0 0 0 0 0 0 0 0 0 0 0 0 0 0 0 0 0 0 0 0 0 8 7 139 215 181 151 125 98 72 176 205 205 208 207 202 220 270 366 630 843 758 562 672 850 672 675 441 586 666 654
0 0 0 0 0 0 0 0 0 0 0 0 0 0 0 0 0 0 0 0 0 0 0 0 0 0 0 0 0 0 0 0 0 0 0 0 0 0 0 0 0 0 0 0 0 0 0 0 0 0 0 0 0 0 0 0 0 46 136 115 112 104 84 38 5 50 53 32 0 0 0 0 0 0 0 0 0 6 169 665 790 778 662 648 578
0 0 0 0 0 0 0 0 0 0 0 0 0 0 0 0 0 0 0 0 0 0 0 0 0 0 0 0 0 0 0 0 0 0 0 0 0 0 0 0 0 0 0 0 0 0 0 0 0 0 0 0 0 0 0 0 0 4 34 129 86 74 59 30 21 0 46 51 46 7 0 0 0 0 0 0 0 0 0 0 133 435 624 672 592
0 0 0 0 0 0 0 0 0 0 0 0 0 0 0 0 0 0 0 0 0 0 0 0 0 0 0 0 0 0 0 0 0 0 0 0 0 0 0 0 0 0 0 0 0 0 0 0 0 0 0 0 0 0 0 0 0 33 70 87 87 66 9 0 0 4 0 0 0 0 0 0 0 0 0 0 0 0 0 0 0 0 0 381 672
0 0 0 0 0 0 0 0 0 0 0 0 0 0 0 0 0 0 0 0 0 0 0 0 0 0 0 0 0 0 0 0 0 0 0 0 0 0 0 0 0 0 0 0 0 0 0 0 0 0 0 0 0 0 0 0 0 47 62 60 51 0 0 0 0 0 0 0 0 0 0 0 0 0 0 0 0 0 0 0 0 0 0 0 245
0 0 0 0 0 0 0 0 0 0 0 0 0 0 0 0 0 0 0 0 0 0 0 0 0 0 0 0 0 0 0 0 0 0 0 0 0 0 0 0 0 0 0 0 0 0 0 0 0 0 0 0 0 0 0 0 0 0 0 0 0 0 0 0 0 0 0 0 0 0 0 0 0 0 0 0 0 0 0 0 0 0 0 0 0
0 0 0 0 0 0 0 0 0 0 0 0 0 0 0 0 0 0 0 0 0 0 0 0 0 0 0 0 0 0 0 0 0 0 0 0 0 0 0 0 0 0 0 0 0 0 0 0 0 0 0 0 0 0 0 0 0 0 0 0 0 0 0 0 0 0 0 0 0 0 0 0 0 0 0 0 0 0 0 0 0 0 0 0 0
0 0 0 0 0 0 0 0 0 0 0 0 0 0 0 0 0 0 0 0 0 0 0 0 0 0 0 0 0 0 0 0 0 0 0 0 0 0 0 0 0 0 0 0 0 0 0 0 0 0 0 0 0 0 0 0 0 0 0 0 0 0 0 0 0 0 0 0 0 0 0 0 0 0 0 0 0 0 0 0 0 0 0 0 0
0 0 0 0 0 0 0 0 0 0 0 0 0 0 0 0 0 0 0 0 0 0 0 0 0 0 0 0 0 0 0 0 0 0 0 0 0 0 0 0 0 0 0 0 0 0 0 0 0 0 0 0 0 0 0 0 0 0 0 0 0 0 0 0 0 0 0 0 0 0 0 0 0 0 0 0 0 0 0 0 0 0 0 0 0
24 0 0 0 0 0 0 0 0 0 0 0 0 0 0 0 0 0 0 0 0 0 0 0 0 0 0 0 0 0 0 0 0 0 0 0 0 0 0 0 0 0 0 0 0 0 0 0 0 0 0 0 0 0 0 0 0 0 0 0 0 0 0 0 0 0 0 0 0 0 0 0 0 0 0 0 0 0 0 0 0 0 0 0 0
98 71 4 5 0 0 0 0 0 0 0 0 0 0 0 0 0 0 0 0 0 0 0 0 0 0 0 0 0 0 0 0 0 0 0 0 0 0 0 0 0 0 0 0 0 0 0 0 0 0 0 0 0 0 0 0 0 0 0 0 0 0 0 0 0 0 0 0 0 0 0 0 0 0 0 0 0 0 0 0 0 0 0 0 0
104 153 188 180 132 135 101 6 0 0 0 0 0 0 0 0 0 0 0 0 0 0 0 0 0 0 0 0 0 0 0 0 0 0 0 0 0 0 0 0 0 0 0 0 0 0 0 0 0 0 0 0 0 0 0 0 0 0 0 0 0 0 0 0 0 0 0 0 0 0 0 0 0 0 0 0 0 0 0 0 0 0 0 0 0
10 13 245 174 161 222 216 216 59 41 5 4 1 27 0 0 0 0 0 0 0 0 0 0 0 0 0 0 0 0 0 0 0 0 0 0 0 0 0 0 0 0 0 0 0 0 0 0 0 0 0 0 0 0 0 0 0 0 0 0 0 0 0 0 0 0 0 0 0 0 0 0 0 0 0 0 0 0 0 0 0 0 0 0 0
106 74 312 301 298 290 279 270 283 269 183 244 234 236 229 149 4 140 0 0 0 0 46 148 0 0 0 0 0 0 0 0 0 0 0 0 0 0 0 0 0 0 0 0 0 0 0 0 0 0 0 0 0 0 0 0 0 0 0 0 0 0 0 0 0 0 0 0 0 0 0 0 0 0 0 0 0 0 0 0 0 0 0 0 0
468 179 422 425 416 359 320 297 300 304 300 304 314 296 265 237 250 251 237 0 0 0 0 0 0 42 0 0 0 0 0 0 0 0 0 0 0 0 0 0 0 0 0 0 0 0 0 0 0 0 0 0 0 0 0 0 0 0 0 0 0 0 0 0 0 0 0 0 0 0 0 0 0 0 0 0 0 0 0 0 0 0 0 0 0
152 433 567 517 478 428 387 339 303 300 304 330 288 300 7 0 282 311 303 289 284 273 245 223 196 170 104 0 0 0 0 0 0 0 0 0 0 0 0 0 0 0 0 0 0 0 0 0 0 0 0 0 0 0 0 0 0 0 0 0 0 0 0 0 0 0 0 0 0 0 0 0 0 0 0 0 0 0 0 0 0 0 0 0 0
343 386 450 396 324 128 0 0 0 11 1 0 0 0 0 0 330 324 309 340 336 304 278 269 245 212 179 0 0 0 0 0 0 3 6 3 0 0 0 0 0 0 0 0 0 0 0 0 0 0 0 0 0 0 0 0 0 0 0 0 0 0 0 0 0 0 0 0 0 0 0 0 0 0 0 0 0 0 0 0 0 0 0 0 0
400 498 502 464 377 359 384 380 364 313 0 10 2 0 0 254 350 370 376 380 356 351 334 318 299 267 224 197 63 0 0 0 1 8 10 0 0 0 0 0 0 0 0 0 0 0 0 0 0 0 0 0 0 0 0 0 0 0 0 0 0 0 0 0 0 0 0 0 0 0 0 0 0 0 0 0 0 0 0 0 0 0 0 0 0
522 550 562 551 531 505 461 447 439 485 513 580 638 616 561 528 521 504 440 384 359 343 309 316 306 300 266 206 122 61 82 46 27 14 11 0 0 0 0 0 0 0 0 0 0 0 0 0 0 0 0 0 0 0 0 0 0 0 0 0 0 0 0 0 0 0 0 0 0 0 0 0 0 0 0 0 0 0 0 0 0 0 0 0 0
396 392 438 466 508 463 513 661 748 820 902 916 894 889 910 914 903 869 768 656 501 465 410 370 329 328 304 261 186 145 87 48 22 7 5 9 2 0 0 0 0 0 0 1 1 0 0 0 0 0 0 0 0 0 0 0 0 0 0 0 0 0 0 0 0 0 0 0 0 0 0 0 0 0 0 0 0 0 0 0 0 0 0 0 0
320 426 549 576 611 660 718 776 762 720 644 526 507 594 654 716 811 837 833 722 617 504 428 354 326 262 79 140 127 106 79 62 27 10 15 14 5 0 0 0 0 0 0 0 1 0 0 0 0 0 0 0 0 0 0 0 0 0 0 0 0 0 0 0 0 0 0 0 0 0 0 0 0 0 0 0 0 0 0 0 0 0 0 0 0
259 351 486 640 788 866 849 641 421 232 216 296 371 354 316 311 388 532 687 728 675 582 466 366 204 0 0 34 66 71 26 21 22 19 13 7 1 0 0 0 0 0 0 0 0 0 0 0 0 0 0 0 0 0 0 0 0 0 0 0 0 0 0 0 0 0 0 0 0 0 0 0 0 0 0 0 0 0 0 0 0 0 0 0 0
150 187 284 351 539 688 616 419 275 215 191 145 144 161 170 197 230 285 367 426 398 302 228 188 172 69 0 0 0 3 5 9 9 6 4 1 0 0 0 0 0 1 5 6 5 1 0 0 0 0 0 0 0 0 0 0 0 0 0 0 0 0 0 0 0 0 0 0 0 0 0 0 0 0 0 0 0 0 0 0 0 0 0 0 0
1 32 0 0 0 188 240 315 356 345 297 248 207 182 0 0 113 191 216 213 189 123 0 0 0 0 0 0 1 5 3 7 11 8 2 0 0 0 0 0 0 0 4 8 5 0 0 0 0 0 0 0 0 0 0 0 0 0 0 0 0 0 0 0 0 0 0 0 0 0 0 0 0 0 0 0 0 0 0 0 0 0 0 0 0
0 15 132 123 0 156 210 252 313 360 379 373 341 244 0 0 0 65 136 133 0 0 0 0 53 0 28 9 4 3 5 7 1 1 0 0 0 0 1 12 3 6 7 6 2 0 0 0 0 0 0 0 0 0 0 0 0 0 0 0 0 0 0 0 0 0 0 0 0 0 0 0 0 0 0 0 0 0 0 0 0 0 0 4 0
0 0 0 0 151 169 220 271 316 364 420 381 260 145 0 0 2 166 161 74 0 0 0 0 0 0 0 6 0 1 2 2 3 3 0 0 0 1 11 8 8 13 10 4 0 0 0 0 0 0 0 0 0 0 0 0 0 0 0 0 0 0 0 0 0 0 0 0 0 0 0 0 0 0 0 0 0 0 0 0 0 0 0 0 0
Wind_Speed
17 13 15 15 15 15 14 12 11 11 12 12 12 12 10 10 10 10 11 11 12 11 12 nan nan nan nan nan 18 17 18 18 17 20 23 28 31 32 32 32 31 29 29 31 32 33 32 30 29 27 25 nan nan nan nan nan nan nan 20 21 22 nan nan nan nan nan nan nan nan nan nan nan nan nan nan nan nan nan nan nan nan nan nan nan nan
15 15 15 14 13 15 15 13 12 11 12 10 11 12 9 8 8 8 9 10 11 10 14 15 nan nan nan nan nan 18 19 20 19 18 21 26 30 32 34 33 31 29 28 29 30 33 32 31 30 28 26 nan nan nan nan nan nan nan 21 21 23 nan nan nan nan nan nan nan nan nan nan nan nan nan nan nan nan nan nan nan nan nan nan nan nan
13 13 12 13 14 14 14 13 11 10 10 9 11 11 10 9 8 8 8 9 9 11 15 16 17 nan nan nan nan nan 19 21 20 20 21 23 27 31 33 33 30 28 27 28 29 31 33 33 31 30 28 26 nan 25 nan nan nan nan nan 24 24 24 nan nan nan nan nan nan nan nan nan nan nan nan nan nan nan nan nan nan nan nan nan nan nan
13 13 12 14 13 13 13 13 10 9 8 8 9 9 10 10 11 12 12 12 12 15 17 18 nan 18 20 nan nan nan 23 21 20 20 21 22 24 27 31 33 30 28 27 27 27 29 31 32 32 31 30 27 27 25 25 nan nan nan nan 26 26 25 24 nan nan nan nan nan nan nan nan nan nan nan nan nan nan nan nan nan nan nan nan nan nan
11 11 11 12 12 10 10 10 9 9 8 7 9 10 10 13 14 16 18 17 17 19 20 nan 21 20 20 22 nan nan nan 24 22 20 20 22 23 26 29 31 32 29 27 26 25 26 26 30 31 32 31 29 28 27 26 25 nan nan nan 28 27 26 25 25 nan nan nan nan nan nan nan nan nan nan nan nan nan nan nan nan nan nan nan nan nan
9 9 8 8 8 10 9 9 7 7 7 8 9 12 12 13 14 17 19 19 19 19 22 22 19 18 19 19 22 nan nan nan 21 21 21 21 23 25 27 30 31 31 29 25 24 24 24 27 29 31 32 30 29 29 28 27 27 nan nan 28 29 27 27 26 26 nan nan nan nan nan nan nan nan nan nan nan nan nan nan nan nan nan nan nan nan
7 8 7 6 6 8 10 7 6 6 7 8 10 12 13 14 15 16 18 18 19 19 21 21 19 19 18 18 19 21 25 24 22 22 22 22 24 24 26 28 31 32 30 28 26 23 23 24 26 29 30 30 29 29 29 29 28 28 nan 27 28 28 28 26 27 28 nan nan nan nan nan nan nan nan nan nan nan nan nan nan nan nan nan nan nan
8 7 5 6 6 7 7 7 6 7 8 10 11 12 13 15 14 16 17 17 19 20 20 22 20 20 18 19 19 20 22 23 24 22 23 23 23 24 26 27 30 31 31 30 28 25 22 23 24 27 29 29 28 29 29 28 29 28 28 27 28 27 29 27 27 30 28 nan nan nan nan nan nan nan nan nan nan nan nan nan nan nan nan nan nan
7 6 5 5 6 6 5 6 8 10 11 11 11 10 12 14 15 14 15 16 18 19 20 21 21 20 19 20 21 21 21 22 23 23 23 24 23 23 25 26 28 29 32 32 30 28 24 21 22 24 26 27 28 28 28 28 29 29 27 27 28 28 29 29 29 28 30 30 nan nan nan nan nan nan nan nan nan nan nan nan nan nan nan nan nan
5 5 6 6 6 8 7 7 10 12 13 13 11 11 12 14 15 14 13 16 16 17 17 18 19 19 19 19 19 22 19 21 21 23 25 23 21 22 24 25 26 27 30 32 31 30 28 24 21 22 23 25 26 28 27 27 29 29 28 27 27 28 28 28 29 29 29 30 30 29 nan nan nan nan nan nan nan nan nan nan nan nan nan nan nan
6 6 5 5 8 9 9 10 12 14 14 14 13 13 13 13 15 14 14 13 14 14 15 16 17 18 19 17 18 18 19 20 21 24 23 21 21 21 21 25 26 26 27 30 32 32 31 30 30 29 26 23 25 26 26 26 27 28 29 27 28 28 28 27 29 29 28 28 28 29 nan nan nan nan nan nan nan nan nan nan nan nan nan nan nan
5 6 6 8 9 9 10 12 14 15 15 15 15 14 14 15 14 15 15 14 14 14 16 17 16 16 15 16 15 15 nan nan nan nan nan 20 21 22 22 23 24 25 27 29 31 33 33 33 33 32 31 28 25 26 26 26 26 26 25 25 25 26 28 27 26 27 27 26 26 28 30 nan nan nan nan nan nan nan nan nan nan nan nan nan nan
5 6 8 9 11 12 14 15 16 16 15 14 15 16 16 15 14 13 14 14 13 13 14 16 15 13 14 14 14 14 14 16 nan nan nan nan nan 20 20 22 24 27 28 31 33 33 34 35 35 36 35 34 32 29 28 28 26 24 22 21 21 22 24 25 25 26 26 25 25 27 31 nan nan nan nan nan nan nan nan nan nan nan nan nan nan
4 6 8 9 10 13 15 16 16 17 16 15 16 16 17 16 14 14 12 15 12 11 12 14 13 13 13 13 nan 13 14 14 15 nan 16 nan nan nan nan nan 24 25 27 32 34 36 37 37 38 37 38 38 37 36 33 30 28 25 24 21 19 19 21 24 24 25 25 25 24 24 30 29 nan nan nan nan nan nan nan nan nan nan nan nan nan
4 6 6 8 10 13 13 15 15 16 17 16 16 18 15 16 15 16 15 14 14 13 13 13 14 14 15 17 nan nan nan 14 13 15 17 nan nan nan nan nan nan nan nan 28 31 33 34 36 37 37 38 39 40 39 36 32 28 26 24 21 19 16 17 18 21 23 24 25 24 23 27 27 27 nan nan nan nan nan nan nan nan nan nan nan nan
8 7 8 9 10 11 13 14 15 15 16 16 15 15 16 16 16 15 17 17 16 14 14 15 17 nan 17 nan 16 nan nan 15 nan nan 19 19 nan nan 22 22 nan nan 25 26 27 30 31 33 36 36 35 37 39 40 39 35 28 24 23 22 19 17 15 15 16 20 21 21 23 23 25 26 26 27 nan nan nan nan nan nan nan nan nan nan nan
13 12 10 10 10 11 12 12 14 16 16 16 16 15 16 16 17 17 17 18 18 18 16 17 19 19 nan nan nan nan nan nan nan nan 21 nan 22 nan 24 nan 24 24 26 25 27 29 28 28 31 34 33 34 36 39 39 36 33 31 27 23 19 17 17 14 15 16 19 21 19 21 23 25 25 25 25 25 nan nan nan nan nan nan nan nan nan
nan nan 14 13 11 11 12 12 13 15 15 15 16 17 17 17 17 18 18 18 20 20 18 18 19 21 21 20 nan nan nan 19 nan nan nan 22 22 nan nan 22 nan nan nan 26 28 nan 26 26 28 29 28 28 29 34 40 40 37 35 33 29 22 19 17 17 17 17 15 16 19 17 20 23 24 23 23 24 24 nan nan nan nan nan nan nan nan
nan nan nan 14 14 14 nan nan 14 14 14 16 16 16 16 17 18 19 18 20 21 21 20 18 21 21 21 22 23 22 22 nan 22 nan nan 22 nan nan nan nan nan nan nan nan nan nan nan nan nan nan 25 23 25 30 37 41 40 36 33 30 26 23 20 19 18 17 15 15 15 15 16 17 22 22 21 22 22 23 nan nan nan nan nan nan nan
nan nan nan nan nan nan nan nan nan 15 16 16 16 17 19 19 19 20 21 20 21 22 20 20 21 19 22 23 23 24 24 25 24 nan nan nan nan nan 23 22 23 22 nan nan nan nan nan nan nan nan nan nan 24 28 32 38 41 41 38 32 29 27 24 22 21 20 18 16 15 14 15 18 18 20 19 20 21 21 22 22 nan nan nan nan nan
nan nan nan nan nan nan nan nan nan nan nan nan nan 18 nan nan nan nan 22 22 22 22 24 21 22 21 24 23 25 25 25 nan nan nan nan nan nan nan nan nan 24 22 23 20 nan nan nan nan nan nan nan nan nan 28 28 33 38 41 41 37 34 32 31 27 24 23 22 21 20 17 16 20 24 19 19 20 20 21 22 22 21 21 21 22 nan
nan nan nan nan nan nan nan nan nan nan nan nan nan nan nan nan nan nan nan nan nan nan nan nan nan nan nan nan 24 24 25 nan 25 nan 25 nan nan nan nan nan nan nan nan nan nan nan nan nan nan nan nan nan nan nan 25 27 32 37 39 36 36 37 37 31 27 27 26 25 25 21 20 20 21 22 21 21 20 21 22 23 24 24 24 22 23
nan nan nan nan nan nan nan nan nan nan nan nan nan nan nan nan nan nan nan nan nan nan nan nan nan nan nan nan nan nan nan nan nan nan nan nan nan nan nan nan nan nan nan nan nan nan nan nan nan nan nan nan nan nan nan nan 27 29 29 33 nan 38 42 39 35 33 32 32 28 25 26 28 28 22 22 22 20 19 20 23 25 25 24 25 25
nan nan nan nan nan nan nan nan nan nan nan nan nan nan nan nan nan nan nan nan nan nan nan nan nan nan nan nan nan nan nan nan nan nan nan nan nan nan nan nan nan nan nan nan nan nan nan nan nan nan nan nan nan nan nan nan 28 27 29 34 39 41 39 37 36 33 35 35 33 34 34 32 27 26 27 24 23 19 17 20 24 24 24 25 27
nan nan nan nan nan nan nan nan nan nan nan nan nan nan nan nan nan nan nan nan nan nan nan nan nan nan nan nan nan nan nan nan nan nan nan nan nan nan nan nan nan nan nan nan nan nan nan nan nan nan nan nan nan nan nan nan nan 42 43 39 41 39 32 31 40 45 44 40 38 38 38 35 29 29 30 30 28 22 18 23 27 27 25 29 27
nan nan nan nan nan nan nan nan nan nan nan nan nan nan nan nan nan nan nan nan nan nan nan nan nan nan nan nan nan nan nan nan nan nan nan nan nan nan nan nan nan nan nan nan nan nan nan nan nan nan nan nan nan nan nan nan nan 37 39 35 33 32 nan nan 43 45 45 44 42 42 41 37 35 35 35 34 33 30 28 31 37 29 31 32 29
nan nan nan nan nan nan nan nan nan nan nan nan nan nan nan nan nan nan nan nan nan nan nan nan nan nan nan nan nan nan nan nan nan nan nan nan nan nan nan nan nan nan nan nan nan nan nan nan nan nan nan nan nan nan nan nan nan nan 33 34 36 38 nan nan nan nan nan nan nan nan nan nan nan nan nan nan nan nan 30 35 38 35 35 36 31
nan nan nan nan nan nan nan nan nan nan nan nan nan nan nan nan nan nan nan nan nan nan nan nan nan nan nan nan nan nan nan nan nan nan nan nan nan nan nan nan nan nan nan nan nan nan nan nan nan nan nan nan nan nan nan nan nan nan nan 26 nan nan nan nan nan nan nan nan nan nan nan nan nan nan nan nan nan nan nan nan 40 41 39 37 33
nan nan nan nan nan nan nan nan nan nan nan nan nan nan nan nan nan nan nan nan nan nan nan nan nan nan nan nan nan nan nan nan nan nan nan nan nan nan nan nan nan nan nan nan nan nan nan nan nan nan nan nan nan nan nan nan nan nan nan nan nan nan nan nan nan nan nan nan nan nan nan nan nan nan nan nan nan nan nan nan nan nan nan 36 34
nan nan nan nan nan nan nan nan nan nan nan nan nan nan nan nan nan nan nan nan nan nan nan nan nan nan nan nan nan nan nan nan nan nan nan nan nan nan nan nan nan nan nan nan nan nan nan nan nan nan nan nan nan nan nan nan nan nan nan nan nan nan nan nan nan nan nan nan nan nan nan nan nan nan nan nan nan nan nan nan nan nan nan nan 34
nan nan nan nan nan nan nan nan nan nan nan nan nan nan nan nan nan nan nan nan nan nan nan nan nan nan nan nan nan nan nan nan nan nan nan nan nan nan nan nan nan nan nan nan nan nan nan nan nan nan nan nan nan nan nan nan nan nan nan nan nan nan nan nan nan nan nan nan nan nan nan nan nan nan nan nan nan nan nan nan nan nan nan nan nan
nan nan nan nan nan nan nan nan nan nan nan nan nan nan nan nan nan nan nan nan nan nan nan nan nan nan nan nan nan nan nan nan nan nan nan nan nan nan nan nan nan nan nan nan nan nan nan nan nan nan nan nan nan nan nan nan nan nan nan nan nan nan nan nan nan nan nan nan nan nan nan nan nan nan nan nan nan nan nan nan nan nan nan nan nan
nan nan nan nan nan nan nan nan nan nan nan nan nan nan nan nan nan nan nan nan nan nan nan nan nan nan nan nan nan nan nan nan nan nan nan nan nan nan nan nan nan nan nan nan nan nan nan nan nan nan nan nan nan nan nan nan nan nan nan nan nan nan nan nan nan nan nan nan nan nan nan nan nan nan nan nan nan nan nan nan nan nan nan nan nan
nan nan nan nan nan nan nan nan nan nan nan nan nan nan nan nan nan nan nan nan nan nan nan nan nan nan nan nan nan nan nan nan nan nan nan nan nan nan nan nan nan nan nan nan nan nan nan nan nan nan nan nan nan nan nan nan nan nan nan nan nan nan nan nan nan nan nan nan nan nan nan nan nan nan nan nan nan nan nan nan nan nan nan nan nan
nan nan nan nan nan nan nan nan nan nan nan nan nan nan nan nan nan nan nan nan nan nan nan nan nan nan nan nan nan nan nan nan nan nan nan nan nan nan nan nan nan nan nan nan nan nan nan nan nan nan nan nan nan nan nan nan nan nan nan nan nan nan nan nan nan nan nan nan nan nan nan nan nan nan nan nan nan nan nan nan nan nan nan nan nan
nan nan nan nan nan nan nan nan nan nan nan nan nan nan nan nan nan nan nan nan nan nan nan nan nan nan nan nan nan nan nan nan nan nan nan nan nan nan nan nan nan nan nan nan nan nan nan nan nan nan nan nan nan nan nan nan nan nan nan nan nan nan nan nan nan nan nan nan nan nan nan nan nan nan nan nan nan nan nan nan nan nan nan nan nan
22 23 22 22 24 26 26 nan nan nan nan nan nan nan nan nan nan nan nan nan nan nan nan nan nan nan nan nan nan nan nan nan nan nan nan nan nan nan nan nan nan nan nan nan nan nan nan nan nan nan nan nan nan nan nan nan nan nan nan nan nan nan nan nan nan nan nan nan nan nan nan nan nan nan nan nan nan nan nan nan nan nan nan nan nan
nan nan 24 24 24 25 26 26 nan nan nan nan nan nan nan nan nan nan nan nan nan nan nan nan nan nan nan nan nan nan nan nan nan nan nan nan nan nan nan nan nan nan nan nan nan nan nan nan nan nan nan nan nan nan nan nan nan nan nan nan nan nan nan nan nan nan nan nan nan nan nan nan nan nan nan nan nan nan nan nan nan nan nan nan nan
30 nan 27 28 27 27 28 28 27 26 26 27 28 29 31 33 nan 28 nan nan nan nan nan 22 nan nan nan nan nan nan nan nan nan nan nan nan nan nan nan nan nan nan nan nan nan nan nan nan nan nan nan nan nan nan nan nan nan nan nan nan nan nan nan nan nan nan nan nan nan nan nan nan nan nan nan nan nan nan nan nan nan nan nan nan nan
23 27 29 29 28 27 28 30 31 31 30 29 29 29 30 31 32 30 26 nan nan nan nan nan nan nan nan nan nan nan nan nan nan nan nan nan nan nan nan nan nan nan nan nan nan nan nan nan nan nan nan nan nan nan nan nan nan nan nan nan nan nan nan nan nan nan nan nan nan nan nan nan nan nan nan nan nan nan nan nan nan nan nan nan nan
23 26 29 31 31 28 28 31 32 34 33 31 31 32 nan nan 27 27 27 28 28 28 28 28 28 28 30 nan nan nan nan nan nan nan nan nan nan nan nan nan nan nan nan nan nan nan nan nan nan nan nan nan nan nan nan nan nan nan nan nan nan nan nan nan nan nan nan nan nan nan nan nan nan nan nan nan nan nan nan nan nan nan nan nan nan
33 34 36 35 36 35 nan nan nan nan nan nan nan nan nan nan 29 28 30 30 30 30 30 31 31 32 34 nan nan nan nan nan nan nan nan nan nan nan nan nan nan nan nan nan nan nan nan nan nan nan nan nan nan nan nan nan nan nan nan nan nan nan nan nan nan nan nan nan nan nan nan nan nan nan nan nan nan nan nan nan nan nan nan nan nan
38 38 39 39 39 40 40 40 38 37 nan nan nan nan nan 33 35 35 35 34 34 32 33 34 33 34 34 35 nan nan nan nan nan nan nan nan nan nan nan nan nan nan nan nan nan nan nan nan nan nan nan nan nan nan nan nan nan nan nan nan nan nan nan nan nan nan nan nan nan nan nan nan nan nan nan nan nan nan nan nan nan nan nan nan nan
41 43 42 41 41 42 44 44 43 41 40 38 36 35 36 36 38 40 39 38 37 37 38 38 37 37 39 40 39 nan nan nan nan nan nan nan nan nan nan nan nan nan nan nan nan nan nan nan nan nan nan nan nan nan nan nan nan nan nan nan nan nan nan nan nan nan nan nan nan nan nan nan nan nan nan nan nan nan nan nan nan nan nan nan nan
44 42 39 40 40 43 44 46 45 44 46 48 47 44 44 43 40 41 42 41 40 40 40 40 41 44 46 47 47 46 nan nan nan nan nan nan nan nan nan nan nan nan nan nan nan nan nan nan nan nan nan nan nan nan nan nan nan nan nan nan nan nan nan nan nan nan nan nan nan nan nan nan nan nan nan nan nan nan nan nan nan nan nan nan nan
38 37 38 39 41 44 44 43 44 46 48 46 46 47 46 45 45 46 46 47 46 44 44 44 46 47 nan 49 48 47 nan nan nan nan nan nan nan nan nan nan nan nan nan nan nan nan nan nan nan nan nan nan nan nan nan nan nan nan nan nan nan nan nan nan nan nan nan nan nan nan nan nan nan nan nan nan nan nan nan nan nan nan nan nan nan
42 42 42 43 44 46 46 46 47 45 44 42 42 46 46 46 47 49 50 51 51 50 48 48 49 nan nan nan nan nan nan nan nan nan nan nan nan nan nan nan nan nan nan nan nan nan nan nan nan nan nan nan nan nan nan nan nan nan nan nan nan nan nan nan nan nan nan nan nan nan nan nan nan nan nan nan nan nan nan nan nan nan nan nan nan
48 49 51 51 50 49 47 47 48 46 43 44 43 48 52 55 57 55 55 55 56 55 55 55 54 nan nan nan nan nan nan nan nan nan nan nan nan nan nan nan nan nan nan nan nan nan nan nan nan nan nan nan nan nan nan nan nan nan nan nan nan nan nan nan nan nan nan nan nan nan nan nan nan nan nan nan nan nan nan nan nan nan nan nan nan
nan nan nan nan nan 51 48 48 49 48 46 46 48 51 nan nan 57 56 56 57 57 58 nan nan nan nan nan nan nan nan nan nan nan nan nan nan nan nan nan nan nan nan nan nan nan nan nan nan nan nan nan nan nan nan nan nan nan nan nan nan nan nan nan nan nan nan nan nan nan nan nan nan nan nan nan nan nan nan nan nan nan nan nan nan nan
nan nan 53 53 nan 52 51 50 48 49 48 47 49 52 nan nan nan nan 53 54 nan nan nan nan nan nan nan nan nan nan nan nan nan nan nan nan nan nan nan nan nan nan nan nan nan nan nan nan nan nan nan nan nan nan nan nan nan nan nan nan nan nan nan nan nan nan nan nan nan nan nan nan nan nan nan nan nan nan nan nan nan nan nan nan nan
nan nan nan nan 53 52 52 53 53 53 51 49 50 54 nan nan nan 51 53 nan nan nan nan nan nan nan nan nan nan nan nan nan nan nan nan nan nan nan nan nan nan nan nan nan nan nan nan nan nan nan nan nan nan nan nan nan nan nan nan nan nan nan nan nan nan nan nan nan nan nan nan nan nan nan nan nan nan nan nan nan nan nan nan nan nan
Wind_Direction
292 288 271 271 270 269 267 260 258 259 265 265 271 270 265 264 259 255 253 253 256 251 254 nan nan nan nan nan 263 266 273 270 267 261 252 249 247 247 252 254 254 252 252 253 254 254 253 254 254 256 255 nan nan nan nan nan nan nan 260 260 258 nan nan nan nan nan nan nan nan nan nan nan nan nan nan nan nan nan nan nan nan nan nan nan nan
286 278 277 274 270 265 259 256 261 255 255 265 266 272 277 275 261 254 261 266 269 274 276 274 nan nan nan nan nan 269 272 274 267 263 256 250 250 249 255 253 255 256 255 254 256 255 254 253 252 255 259 nan nan nan nan nan nan nan 259 264 263 nan nan nan nan nan nan nan nan nan nan nan nan nan nan nan nan nan nan nan nan nan nan nan nan
279 280 283 280 273 267 258 248 246 252 261 268 267 273 277 282 281 283 282 278 280 276 274 273 268 nan nan nan nan nan 264 265 262 262 259 255 254 251 251 254 254 258 261 258 257 258 258 256 254 253 256 257 nan 257 nan nan nan nan nan 266 266 263 nan nan nan nan nan nan nan nan nan nan nan nan nan nan nan nan nan nan nan nan nan nan nan
283 281 280 275 274 272 266 257 242 237 258 270 269 270 276 275 274 276 272 270 268 268 268 272 nan 257 256 nan nan nan 254 253 259 266 264 260 256 254 253 250 251 255 260 259 259 259 260 261 258 256 256 258 257 256 256 nan nan nan nan 266 266 266 264 nan nan nan nan nan nan nan nan nan nan nan nan nan nan nan nan nan nan nan nan nan nan
290 286 277 280 275 264 253 248 245 243 247 264 270 265 262 259 263 266 262 261 259 257 261 nan 262 258 261 260 nan nan nan 254 254 251 259 264 259 255 253 248 244 248 253 258 260 261 260 262 262 260 259 259 259 258 257 256 nan nan nan 266 266 266 265 264 nan nan nan nan nan nan nan nan nan nan nan nan nan nan nan nan nan nan nan nan nan
302 292 278 277 268 254 244 229 232 246 255 254 262 260 263 261 261 257 263 262 259 259 261 260 258 259 255 255 254 nan nan nan 248 258 254 254 258 256 252 248 246 243 243 253 260 261 260 261 265 264 263 262 261 262 262 259 260 nan nan 263 266 267 267 268 266 nan nan nan nan nan nan nan nan nan nan nan nan nan nan nan nan nan nan nan nan
307 294 288 276 260 255 256 261 247 266 285 266 260 250 253 250 254 259 255 256 256 256 260 258 258 255 255 254 251 247 248 245 240 244 252 259 257 254 248 246 245 242 241 244 252 260 261 260 262 265 265 263 263 263 264 262 263 264 nan 265 267 268 268 270 272 269 nan nan nan nan nan nan nan nan nan nan nan nan nan nan nan nan nan nan nan
298 289 286 273 257 252 270 285 287 287 284 270 260 255 251 248 246 265 259 255 257 251 253 255 251 251 250 254 255 249 245 245 240 235 239 251 261 259 250 241 238 238 239 241 246 252 262 260 258 260 266 264 263 263 266 266 263 264 267 269 271 271 271 270 273 275 273 nan nan nan nan nan nan nan nan nan nan nan nan nan nan nan nan nan nan
298 293 279 256 249 256 263 284 288 286 274 267 263 263 259 255 248 257 265 261 257 255 252 254 253 252 251 253 253 252 246 245 244 240 238 244 249 256 257 249 241 238 237 239 240 245 255 261 259 260 264 265 262 263 266 266 266 264 268 271 272 272 271 271 273 276 279 280 nan nan nan nan nan nan nan nan nan nan nan nan nan nan nan nan nan
273 279 271 266 263 265 262 262 273 274 272 271 265 261 262 264 260 253 259 265 259 261 259 258 258 257 256 258 261 267 268 257 250 248 247 243 239 243 243 242 245 242 240 243 246 248 246 251 255 258 263 264 263 263 265 265 264 265 267 270 271 270 271 271 273 275 279 282 284 284 nan nan nan nan nan nan nan nan nan nan nan nan nan nan nan
243 253 260 267 264 270 267 254 260 266 272 271 267 264 260 256 267 261 252 254 266 265 266 264 260 257 254 254 259 261 263 264 261 258 254 253 249 236 233 237 236 237 243 245 248 251 252 250 251 251 251 258 260 261 264 262 262 266 270 271 269 269 272 272 275 276 277 281 283 285 nan nan nan nan nan nan nan nan nan nan nan nan nan nan nan
227 227 230 237 247 252 253 249 256 264 269 270 269 266 265 261 260 269 270 257 249 252 257 260 256 255 253 249 253 259 nan nan nan nan nan 255 255 251 234 228 236 235 239 248 250 250 252 254 256 256 254 253 255 254 256 258 257 258 270 273 275 272 275 277 277 279 279 279 280 283 280 nan nan nan nan nan nan nan nan nan nan nan nan nan nan
229 220 217 228 228 233 241 243 249 256 262 266 267 265 261 262 259 256 271 268 256 250 251 260 262 251 243 245 248 251 264 266 nan nan nan nan nan 249 249 243 235 236 234 239 248 251 255 258 259 258 257 257 256 256 254 248 249 253 258 264 268 272 275 279 279 279 281 281 281 282 285 nan nan nan nan nan nan nan nan nan nan nan nan nan nan
253 241 230 232 236 235 238 246 251 255 257 259 259 259 262 262 263 255 251 266 256 253 254 256 253 266 263 254 nan 248 259 263 253 nan 237 nan nan nan nan nan 245 241 236 238 240 245 251 258 259 259 257 256 256 256 256 254 250 246 246 247 250 259 267 276 281 282 283 285 286 285 286 290 nan nan nan nan nan nan nan nan nan nan nan nan nan
261 241 235 227 230 239 243 245 252 257 259 261 259 253 249 261 263 270 260 255 265 252 250 256 265 257 255 256 nan nan nan 256 256 245 240 nan nan nan nan nan nan nan nan 243 240 241 243 249 254 258 257 255 254 253 254 254 254 255 252 247 243 245 256 266 279 285 287 289 290 290 286 292 291 nan nan nan nan nan nan nan nan nan nan nan nan
249 248 233 226 228 239 241 245 249 252 258 259 257 264 262 256 256 258 263 259 253 249 244 247 256 nan 252 nan 260 nan nan 258 nan nan 246 251 nan nan 253 253 nan nan 250 251 254 251 244 245 251 252 254 254 253 251 251 252 254 257 258 255 252 249 249 258 262 269 277 282 291 292 286 289 291 292 nan nan nan nan nan nan nan nan nan nan nan
246 243 242 239 235 238 242 246 252 250 253 255 254 254 253 253 256 255 253 261 257 254 243 242 249 250 nan nan nan nan nan nan nan nan 248 nan 253 nan 254 nan 252 251 253 252 254 259 257 251 249 251 252 252 248 244 242 246 248 249 252 256 256 256 255 256 255 258 272 282 285 290 288 286 289 290 290 290 nan nan nan nan nan nan nan nan nan
nan nan 249 252 251 249 248 250 250 254 258 258 257 255 256 256 254 257 254 254 263 255 252 241 247 248 252 255 nan nan nan 258 nan nan nan 261 258 nan nan 252 nan nan nan 255 258 nan 259 254 252 249 248 248 253 246 237 234 240 244 247 250 257 256 257 255 256 256 257 269 283 288 292 290 287 288 285 288 290 nan nan nan nan nan nan nan nan
nan nan nan 257 256 253 nan nan 255 257 255 257 259 261 257 255 255 256 258 259 259 257 264 257 246 245 248 251 253 253 259 nan 258 nan nan 255 nan nan nan nan nan nan nan nan nan nan nan nan nan nan 248 254 257 251 238 232 232 238 245 249 253 255 256 257 258 258 257 256 264 275 279 281 286 285 285 288 292 294 nan nan nan nan nan nan nan
nan nan nan nan nan nan nan nan nan 256 257 253 255 255 255 251 252 255 255 254 258 264 263 258 260 252 247 250 250 250 253 255 259 nan nan nan nan nan 257 251 250 246 nan nan nan nan nan nan nan nan nan nan 256 254 242 233 234 236 239 244 249 253 255 257 258 256 254 254 258 258 262 266 265 270 284 288 290 292 295 299 nan nan nan nan nan
nan nan nan nan nan nan nan nan nan nan nan nan nan 255 nan nan nan nan 256 253 255 258 259 257 255 258 253 248 249 249 251 nan nan nan nan nan nan nan nan nan 248 242 236 243 nan nan nan nan nan nan nan nan nan 255 249 241 236 237 239 241 245 248 251 253 257 257 255 253 253 255 257 263 273 272 265 270 276 282 286 293 298 303 306 306 nan
nan nan nan nan nan nan nan nan nan nan nan nan nan nan nan nan nan nan nan nan nan nan nan nan nan nan nan nan 256 253 250 nan 252 nan 256 nan nan nan nan nan nan nan nan nan nan nan nan nan nan nan nan nan nan nan 255 251 246 244 242 244 247 247 251 250 249 253 255 255 253 254 256 259 266 274 278 281 288 287 289 294 299 299 301 306 302
nan nan nan nan nan nan nan nan nan nan nan nan nan nan nan nan nan nan nan nan nan nan nan nan nan nan nan nan nan nan nan nan nan nan nan nan nan nan nan nan nan nan nan nan nan nan nan nan nan nan nan nan nan nan nan nan 247 246 246 246 nan 252 252 246 246 243 249 251 252 251 248 247 249 256 267 271 274 284 293 295 292 293 299 301 301
nan nan nan nan nan nan nan nan nan nan nan nan nan nan nan nan nan nan nan nan nan nan nan nan nan nan nan nan nan nan nan nan nan nan nan nan nan nan nan nan nan nan nan nan nan nan nan nan nan nan nan nan nan nan nan nan 242 236 241 238 236 238 239 247 247 250 249 251 248 248 251 249 248 249 250 255 266 273 278 279 284 288 290 292 296
nan nan nan nan nan nan nan nan nan nan nan nan nan nan nan nan nan nan nan nan nan nan nan nan nan nan nan nan nan nan nan nan nan nan nan nan nan nan nan nan nan nan nan nan nan nan nan nan nan nan nan nan nan nan nan nan nan 243 247 242 236 235 234 242 246 243 245 248 248 249 255 264 262 257 254 251 252 263 270 270 271 274 276 273 276
nan nan nan nan nan nan nan nan nan nan nan nan nan nan nan nan nan nan nan nan nan nan nan nan nan nan nan nan nan nan nan nan nan nan nan nan nan nan nan nan nan nan nan nan nan nan nan nan nan nan nan nan nan nan nan nan nan 242 246 245 237 230 nan nan 243 244 242 243 244 245 247 248 251 252 252 255 254 250 257 267 275 278 275 275 281
nan nan nan nan nan nan nan nan nan nan nan nan nan nan nan nan nan nan nan nan nan nan nan nan nan nan nan nan nan nan nan nan nan nan nan nan nan nan nan nan nan nan nan nan nan nan nan nan nan nan nan nan nan nan nan nan nan nan 243 241 231 232 nan nan nan nan nan nan nan nan nan nan nan nan nan nan nan nan 257 264 273 279 279 281 283
nan nan nan nan nan nan nan nan nan nan nan nan nan nan nan nan nan nan nan nan nan nan nan nan nan nan nan nan nan nan nan nan nan nan nan nan nan nan nan nan nan nan nan nan nan nan nan nan nan nan nan nan nan nan nan nan nan nan nan 247 nan nan nan nan nan nan nan nan nan nan nan nan nan nan nan nan nan nan nan nan 270 272 270 275 281
nan nan nan nan nan nan nan nan nan nan nan nan nan nan nan nan nan nan nan nan nan nan nan nan nan nan nan nan nan nan nan nan nan nan nan nan nan nan nan nan nan nan nan nan nan nan nan nan nan nan nan nan nan nan nan nan nan nan nan nan nan nan nan nan nan nan nan nan nan nan nan nan nan nan nan nan nan nan nan nan nan nan nan 268 272
nan nan nan nan nan nan nan nan nan nan nan nan nan nan nan nan nan nan nan nan nan nan nan nan nan nan nan nan nan nan nan nan nan nan nan nan nan nan nan nan nan nan nan nan nan nan nan nan nan nan nan nan nan nan nan nan nan nan nan nan nan nan nan nan nan nan nan nan nan nan nan nan nan nan nan nan nan nan nan nan nan nan nan nan 267
nan nan nan nan nan nan nan nan nan nan nan nan nan nan nan nan nan nan nan nan nan nan nan nan nan nan nan nan nan nan nan nan nan nan nan nan nan nan nan nan nan nan nan nan nan nan nan nan nan nan nan nan nan nan nan nan nan nan nan nan nan nan nan nan nan nan nan nan nan nan nan nan nan nan nan nan nan nan nan nan nan nan nan nan nan
nan nan nan nan nan nan nan nan nan nan nan nan nan nan nan nan nan nan nan nan nan nan nan nan nan nan nan nan nan nan nan nan nan nan nan nan nan nan nan nan nan nan nan nan nan nan nan nan nan nan nan nan nan nan nan nan nan nan nan nan nan nan nan nan nan nan nan nan nan nan nan nan nan nan nan nan nan nan nan nan nan nan nan nan nan
nan nan nan nan nan nan nan nan nan nan nan nan nan nan nan nan nan nan nan nan nan nan nan nan nan nan nan nan nan nan nan nan nan nan nan nan nan nan nan nan nan nan nan nan nan nan nan nan nan nan nan nan nan nan nan nan nan nan nan nan nan nan nan nan nan nan nan nan nan nan nan nan nan nan nan nan nan nan nan nan nan nan nan nan nan
nan nan nan nan nan nan nan nan nan nan nan nan nan nan nan nan nan nan nan nan nan nan nan nan nan nan nan nan nan nan nan nan nan nan nan nan nan nan nan nan nan nan nan nan nan nan nan nan nan nan nan nan nan nan nan nan nan nan nan nan nan nan nan nan nan nan nan nan nan nan nan nan nan nan nan nan nan nan nan nan nan nan nan nan nan
nan nan nan nan nan nan nan nan nan nan nan nan nan nan nan nan nan nan nan nan nan nan nan nan nan nan nan nan nan nan nan nan nan nan nan nan nan nan nan nan nan nan nan nan nan nan nan nan nan nan nan nan nan nan nan nan nan nan nan nan nan nan nan nan nan nan nan nan nan nan nan nan nan nan nan nan nan nan nan nan nan nan nan nan nan
nan nan nan nan nan nan nan nan nan nan nan nan nan nan nan nan nan nan nan nan nan nan nan nan nan nan nan nan nan nan nan nan nan nan nan nan nan nan nan nan nan nan nan nan nan nan nan nan nan nan nan nan nan nan nan nan nan nan nan nan nan nan nan nan nan nan nan nan nan nan nan nan nan nan nan nan nan nan nan nan nan nan nan nan nan
273 278 278 279 288 293 296 nan nan nan nan nan nan nan nan nan nan nan nan nan nan nan nan nan nan nan nan nan nan nan nan nan nan nan nan nan nan nan nan nan nan nan nan nan nan nan nan nan nan nan nan nan nan nan nan nan nan nan nan nan nan nan nan nan nan nan nan nan nan nan nan nan nan nan nan nan nan nan nan nan nan nan nan nan nan
nan nan 279 277 280 282 284 289 nan nan nan nan nan nan nan nan nan nan nan nan nan nan nan nan nan nan nan nan nan nan nan nan nan nan nan nan nan nan nan nan nan nan nan nan nan nan nan nan nan nan nan nan nan nan nan nan nan nan nan nan nan nan nan nan nan nan nan nan nan nan nan nan nan nan nan nan nan nan nan nan nan nan nan nan nan
271 nan 278 280 281 283 279 277 281 282 282 285 289 288 288 287 nan 277 nan nan nan nan nan 280 nan nan nan nan nan nan nan nan nan nan nan nan nan nan nan nan nan nan nan nan nan nan nan nan nan nan nan nan nan nan nan nan nan nan nan nan nan nan nan nan nan nan nan nan nan nan nan nan nan nan nan nan nan nan nan nan nan nan nan nan nan
263 275 282 284 284 284 282 274 270 273 279 286 288 288 289 293 286 277 275 nan nan nan nan nan nan nan nan nan nan nan nan nan nan nan nan nan nan nan nan nan nan nan nan nan nan nan nan nan nan nan nan nan nan nan nan nan nan nan nan nan nan nan nan nan nan nan nan nan nan nan nan nan nan nan nan nan nan nan nan nan nan nan nan nan nan
282 279 283 283 282 282 279 277 272 269 273 278 280 282 nan nan 287 281 278 281 281 277 273 273 273 277 281 nan nan nan nan nan nan nan nan nan nan nan nan nan nan nan nan nan nan nan nan nan nan nan nan nan nan nan nan nan nan nan nan nan nan nan nan nan nan nan nan nan nan nan nan nan nan nan nan nan nan nan nan nan nan nan nan nan nan
288 283 282 282 281 280 nan nan nan nan nan nan nan nan nan nan 288 284 280 284 284 279 277 277 275 278 284 nan nan nan nan nan nan nan nan nan nan nan nan nan nan nan nan nan nan nan nan nan nan nan nan nan nan nan nan nan nan nan nan nan nan nan nan nan nan nan nan nan nan nan nan nan nan nan nan nan nan nan nan nan nan nan nan nan nan
286 286 287 286 284 283 282 282 281 279 nan nan nan nan nan 290 285 285 288 289 288 287 285 285 284 283 280 279 nan nan nan nan nan nan nan nan nan nan nan nan nan nan nan nan nan nan nan nan nan nan nan nan nan nan nan nan nan nan nan nan nan nan nan nan nan nan nan nan nan nan nan nan nan nan nan nan nan nan nan nan nan nan nan nan nan
285 284 285 285 283 282 282 281 281 279 276 275 274 275 281 285 287 285 286 286 284 283 284 284 283 281 278 276 275 nan nan nan nan nan nan nan nan nan nan nan nan nan nan nan nan nan nan nan nan nan nan nan nan nan nan nan nan nan nan nan nan nan nan nan nan nan nan nan nan nan nan nan nan nan nan nan nan nan nan nan nan nan nan nan nan
282 283 286 285 284 281 279 277 278 279 277 271 272 274 278 281 282 281 280 281 281 280 280 281 279 277 276 276 276 274 nan nan nan nan nan nan nan nan nan nan nan nan nan nan nan nan nan nan nan nan nan nan nan nan nan nan nan nan nan nan nan nan nan nan nan nan nan nan nan nan nan nan nan nan nan nan nan nan nan nan nan nan nan nan nan
280 283 285 286 283 282 281 282 280 276 274 270 272 276 278 281 283 282 278 278 276 275 274 272 271 273 nan 276 277 276 nan nan nan nan nan nan nan nan nan nan nan nan nan nan nan nan nan nan nan nan nan nan nan nan nan nan nan nan nan nan nan nan nan nan nan nan nan nan nan nan nan nan nan nan nan nan nan nan nan nan nan nan nan nan nan
284 286 288 288 285 282 282 281 277 274 271 267 272 277 278 281 281 281 277 276 276 276 275 276 275 nan nan nan nan nan nan nan nan nan nan nan nan nan nan nan nan nan nan nan nan nan nan nan nan nan nan nan nan nan nan nan nan nan nan nan nan nan nan nan nan nan nan nan nan nan nan nan nan nan nan nan nan nan nan nan nan nan nan nan nan
277 279 281 285 283 280 277 276 276 273 271 263 268 271 273 274 275 274 274 274 274 274 273 274 274 nan nan nan nan nan nan nan nan nan nan nan nan nan nan nan nan nan nan nan nan nan nan nan nan nan nan nan nan nan nan nan nan nan nan nan nan nan nan nan nan nan nan nan nan nan nan nan nan nan nan nan nan nan nan nan nan nan nan nan nan
nan nan nan nan nan 283 281 277 274 273 270 267 270 273 nan nan 270 271 271 272 273 274 nan nan nan nan nan nan nan nan nan nan nan nan nan nan nan nan nan nan nan nan nan nan nan nan nan nan nan nan nan nan nan nan nan nan nan nan nan nan nan nan nan nan nan nan nan nan nan nan nan nan nan nan nan nan nan nan nan nan nan nan nan nan nan
nan nan 279 280 nan 283 283 281 280 278 275 273 274 276 nan nan nan nan 276 275 nan nan nan nan nan nan nan nan nan nan nan nan nan nan nan nan nan nan nan nan nan nan nan nan nan nan nan nan nan nan nan nan nan nan nan nan nan nan nan nan nan nan nan nan nan nan nan nan nan nan nan nan nan nan nan nan nan nan nan nan nan nan nan nan nan
nan nan nan nan 277 276 277 279 281 280 278 277 277 278 nan nan nan 277 277 nan nan nan nan nan nan nan nan nan nan nan nan nan nan nan nan nan nan nan nan nan nan nan nan nan nan nan nan nan nan nan nan nan nan nan nan nan nan nan nan nan nan nan nan nan nan nan nan nan nan nan nan nan nan nan nan nan nan nan nan nan nan nan nan nan nan